Vorticity
nan nan nan nan nan nan nan nan nan nan nan nan nan nan nan nan nan nan nan nan nan nan nan nan nan nan nan nan nan nan nan nan nan nan nan nan nan nan nan nan nan nan nan
nan 8 5 5 4 4 4 4 4 4 5 5 6 5 4 5 4 4 3 5 5 5 5 5 5 4 4 6 7 7 5 4 5 4 3 3 2 5 4 5 6 6 nan
nan 7 6 6 5 5 4 4 4 4 4 5 5 5 4 4 4 4 2 6 9 7 5 5 4 7 6 4 5 4 4 4 4 4 2 1 4 5 4 4 4 5 nan
nan 7 7 7 5 5 5 4 4 3 3 4 4 5 4 3 4 5 3 5 14 11 4 4 4 5 7 6 3 3 3 3 4 4 4 4 7 4 4 4 3 4 nan
nan 10 9 8 7 7 7 6 4 4 4 4 3 4 4 5 4 4 4 5 10 11 6 3 3 4 5 5 4 3 3 3 3 5 6 9 11 6 4 4 4 4 nan
nan 8 9 9 8 8 8 8 7 6 6 6 5 4 3 3 4 5 6 5 7 9 5 3 3 4 4 5 4 4 4 3 4 5 7 12 10 6 4 5 5 3 nan
nan 5 5 6 7 8 8 7 8 8 9 7 7 6 4 5 5 5 6 5 5 6 4 3 3 4 5 5 4 6 7 3 5 5 6 8 9 8 4 4 4 5 nan
nan 6 6 5 5 5 5 6 6 7 8 7 7 6 6 6 6 6 6 6 5 5 5 5 4 4 5 5 6 7 7 4 4 6 6 11 11 6 3 5 4 4 nan
nan 6 6 6 6 7 5 4 3 5 5 6 6 6 7 7 7 6 6 6 5 6 6 6 5 5 6 6 6 6 6 5 5 6 7 10 14 5 3 4 4 4 nan
nan 5 6 7 7 7 9 6 5 5 4 5 7 7 7 9 9 9 8 7 7 7 6 6 6 6 6 7 7 6 6 8 6 6 8 6 9 7 5 5 5 4 nan
nan 6 6 6 5 7 10 8 6 9 7 8 10 11 12 10 9 11 12 10 7 6 7 7 6 6 7 9 10 7 8 8 8 6 7 4 7 11 6 6 6 5 nan
nan 5 6 6 6 8 7 6 9 11 11 8 7 10 10 9 9 9 13 15 13 10 11 12 11 9 8 8 10 10 9 7 6 6 7 7 7 8 8 7 6 6 nan
nan 5 6 6 7 7 8 8 8 8 8 7 6 8 8 8 8 8 9 10 12 14 13 11 12 12 11 6 6 8 7 7 7 9 9 9 7 9 10 8 6 6 nan
nan 6 4 6 6 7 8 7 7 7 7 6 7 7 9 7 6 7 7 7 7 9 9 10 9 9 9 8 8 8 7 6 5 8 12 11 9 12 12 7 6 5 nan
nan 6 4 5 6 7 7 7 7 7 7 7 7 8 8 8 8 8 7 8 7 8 8 8 8 10 9 10 10 9 9 8 6 5 10 14 13 13 11 7 6 5 nan
nan 6 5 5 6 6 6 7 7 7 7 8 7 7 7 9 8 8 8 8 8 8 8 9 7 8 9 8 8 10 11 10 10 7 6 11 16 15 12 8 6 6 nan
nan 7 7 7 5 5 7 7 7 7 8 8 7 7 9 8 8 9 8 8 8 7 8 8 9 9 9 9 8 7 8 9 9 9 9 9 14 15 13 11 9 8 nan
nan 7 7 6 5 7 9 8 8 9 9 8 9 8 7 9 9 8 8 8 8 8 8 8 9 9 9 9 9 8 8 9 7 8 8 7 7 11 15 14 10 11 nan
nan 7 6 6 7 8 9 9 9 10 9 9 8 7 6 9 9 10 9 8 8 8 8 8 9 8 7 8 9 9 8 8 8 8 7 7 7 6 9 15 16 14 nan
nan 7 6 7 7 8 9 10 8 6 6 8 7 5 8 8 7 8 9 9 9 9 8 8 8 9 9 7 9 9 9 8 8 8 9 10 9 9 8 8 13 18 nan
nan 6 7 6 5 7 9 8 8 7 7 7 7 7 7 5 8 9 10 9 9 9 9 9 9 8 8 10 9 10 10 9 10 9 9 9 10 11 9 9 8 7 nan
nan 7 7 6 6 7 9 9 7 7 8 8 7 8 6 7 8 8 9 10 11 9 9 11 9 9 9 9 9 8 7 10 8 10 10 10 10 10 11 12 11 10 nan
nan 7 6 6 6 8 7 6 6 8 8 9 9 7 6 8 9 9 7 9 9 10 10 10 9 9 9 8 10 7 8 7 8 10 9 8 9 9 10 11 11 14 nan
nan 7 7 6 7 8 7 6 8 6 7 8 7 6 7 8 8 8 9 8 7 7 8 9 11 11 9 8 10 11 10 7 5 8 10 8 8 10 10 9 8 9 nan
nan 7 6 6 7 8 8 6 6 6 7 7 7 7 7 8 10 10 8 8 9 8 7 7 8 10 11 10 8 9 11 11 8 5 4 10 8 9 12 11 10 9 nan
nan nan nan nan nan nan nan nan nan nan nan nan nan nan nan nan nan nan nan nan nan nan nan nan nan nan nan nan nan nan nan nan nan nan nan nan nan nan nan nan nan nan nan
CAPE
837 1261 1999 1902 1455 1160 863 908 600 433 373 286 302 221 91 115 308 603 810 328 134 44 32 233 777 853 893 682 355 654 533 276 52 67 37 0 0 0 0 55 6 10 23
953 1269 1799 2005 1684 1492 1187 1226 748 584 546 297 215 185 462 460 307 487 665 788 490 153 42 92 258 587 626 733 687 676 606 185 27 8 0 0 0 0 0 0 0 0 0
911 1286 1552 2011 2155 1958 1385 1301 1025 668 468 392 268 211 401 408 381 411 648 889 971 474 183 176 280 464 687 670 654 504 280 15 0 0 0 0 0 0 0 0 0 0 0
920 1084 1316 1865 1924 1850 1694 1190 1192 1118 877 507 406 404 476 623 726 647 674 731 1134 959 566 198 276 389 643 733 427 256 102 0 0 0 0 0 0 0 0 0 0 0 0
827 908 1190 1594 1648 1668 1586 1610 1258 1232 1238 1008 710 470 314 275 281 322 342 531 963 813 706 432 337 253 300 515 434 256 57 0 0 0 0 0 0 0 0 0 0 0 0
712 1110 1176 1341 1377 1200 1096 1024 1309 1192 1097 1051 1091 1029 852 664 553 383 330 402 767 679 803 448 272 184 241 282 432 343 170 56 6 0 0 0 0 0 0 0 0 0 0
48 252 900 1479 1479 1272 1130 932 842 951 974 1079 1027 942 1047 1151 1104 859 796 529 467 933 707 630 478 319 163 183 305 486 655 186 13 0 0 0 0 38 0 0 0 0 0
0 0 0 258 580 753 777 856 896 886 840 861 1038 963 949 991 1025 1261 1281 1112 831 501 915 840 579 458 326 147 118 410 604 1 0 0 0 0 0 89 0 0 0 0 2
0 0 0 0 2 145 54 41 119 285 411 562 734 925 921 867 930 1030 1289 1336 1178 1064 900 1081 926 715 550 392 302 428 391 81 0 0 0 0 4 122 7 0 0 0 2
0 0 0 0 0 0 0 0 0 0 0 0 108 251 228 199 175 436 642 692 894 1108 1212 1149 1187 1161 1151 961 674 348 165 145 0 0 0 0 0 93 35 0 0 0 2
0 0 0 0 0 0 0 0 0 0 0 0 0 0 0 30 58 85 144 196 448 769 805 931 977 1111 958 765 565 307 59 0 0 0 0 0 0 45 218 324 195 34 2
0 0 0 0 0 0 0 0 0 0 0 0 0 0 0 0 0 0 0 132 228 457 561 731 744 624 596 438 151 150 48 0 0 0 0 0 0 11 740 801 692 684 262
0 0 0 0 0 0 0 0 0 0 0 0 0 0 0 0 0 0 0 0 0 1 34 271 252 262 274 346 250 51 0 0 0 0 0 0 0 11 972 1109 844 1018 1062
0 0 0 0 0 0 0 0 0 0 0 0 0 0 0 0 0 0 0 0 0 0 0 2 43 49 65 175 190 102 52 12 0 0 0 0 0 276 1162 1334 1046 1041 1063
0 0 0 0 0 0 0 0 0 0 0 0 0 0 0 0 0 0 0 0 0 0 0 0 0 0 0 23 91 96 105 50 15 3 0 0 0 219 1106 1385 1267 846 761
0 0 0 0 0 0 0 0 0 0 0 0 0 0 0 0 0 0 0 0 0 0 0 0 0 0 0 0 0 0 2 38 100 72 54 80 0 111 735 1123 1212 1082 892
0 0 0 0 0 0 0 0 0 0 0 0 0 0 0 0 0 0 0 0 0 0 0 0 0 0 0 0 0 0 0 0 2 27 31 27 63 0 59 843 990 1093 1000
0 0 0 0 0 0 0 0 0 0 0 0 0 0 0 0 0 0 0 0 0 0 0 0 0 0 0 0 0 0 1 20 37 64 60 6 70 108 9 22 329 842 963
0 0 0 0 0 0 0 0 0 0 0 0 0 0 0 0 0 0 0 0 0 0 0 0 0 0 0 0 0 0 0 5 12 24 0 35 56 122 144 153 17 92 364
0 0 0 0 0 0 0 0 0 0 0 0 0 0 0 0 0 0 0 0 0 0 0 0 0 0 0 0 0 0 0 0 0 2 8 27 40 107 157 216 330 105 19
0 0 0 0 0 0 0 0 0 0 0 0 0 0 0 0 0 0 0 0 0 0 0 0 0 0 0 0 0 0 0 0 0 0 0 0 23 55 92 135 277 209 157
0 0 0 0 0 0 0 0 0 0 0 0 0 0 2 0 0 0 0 0 0 0 0 0 0 0 0 0 0 0 0 0 0 0 0 0 2 29 50 104 240 240 436
0 0 0 0 0 0 0 0 0 0 0 0 0 0 1 1 0 0 0 0 0 0 0 0 0 0 0 0 0 16 11 1 0 0 0 0 0 0 0 18 141 142 242
0 0 0 0 0 0 0 0 0 0 0 0 0 0 0 0 2 0 0 0 0 0 0 0 0 0 0 0 0 0 0 2 8 3 0 0 0 0 0 0 0 0 83
0 0 0 0 0 0 0 0 0 0 0 0 0 0 1 0 0 2 2 4 0 0 0 0 0 0 0 0 0 0 0 0 0 0 2 0 0 0 0 0 11 8 13
0 0 0 0 0 0 0 0 0 0 0 0 0 0 0 0 0 1 3 1 2 1 0 0 0 0 0 0 0 0 0 3 5 10 1 0 0 0 0 3 2 2 2